FW5178 Weather Reports


Display with metric or nautical units.
time (UTC)temp
F
wind
direction
speed
MPH
gust
MPH
rain 1hr
in
rain 24hr
in
rain mn
in
humidity
%
barometer
mb
20260505164530 61 336 7.0 18.0 0.00 0.00 0.00 73 1016.1
20260505163030 60 335 6.0 15.0 0.00 0.00 0.00 74 1016.0
20260505161530 59 338 6.0 14.0 0.00 0.00 0.00 75 1016.0
20260505153029 57 352 5.0 14.0 0.00 0.00 0.00 80 1015.8
20260505151531 56 355 5.0 11.0 0.00 0.00 0.00 83 1015.8
20260505124530 53 2 6.0 12.0 0.00 0.00 0.00 85 1014.6
20260505123144 54 360 6.0 12.0 0.00 0.00 0.00 85 1014.6
20260505121529 54 1 7.0 12.0 0.00 0.00 0.00 85 1014.5
20260505114528 54 7 6.0 10.0 0.00 0.00 0.00 85 1014.3
20260505113107 54 7 6.0 13.0 0.00 0.00 0.00 85 1014.3
20260505111531 54 7 6.0 11.0 0.00 0.00 0.00 85 1014.2
20260505100031 55 6 6.0 11.0 0.00 0.00 0.00 82 1013.8
20260505094526 56 11 5.0 10.0 0.00 0.00 0.00 81 1013.7
20260505091530 57 4 6.0 13.0 0.00 0.00 0.00 81 1013.5
20260505084533 57 7 5.0 10.0 0.00 0.00 0.00 81 1013.2
20260505083029 57 8 5.0 9.0 0.00 0.00 0.00 82 1013.2
20260505081533 58 5 4.0 7.0 0.00 0.00 0.00 81 1013.1
20260505080028 57 18 4.0 8.0 0.00 0.00 0.00 80 1013.0
20260505074606 58 21 3.0 5.0 0.00 0.00 0.00 79 1012.9
20260505071532 60 360 3.0 5.0 0.00 0.00 0.00 72 1012.7
20260505070032 62 228 0.0 5.0 0.00 0.00 0.00 69 1012.6
20260505064532 63 227 5.0 10.0 0.00 0.00 0.00 68 1012.5
20260505063028 63 228 5.0 9.0 0.00 0.00 0.00 67 1012.4
20260505061526 64 232 4.0 9.0 0.00 0.00 0.00 65 1012.4
20260505060030 64 223 6.0 12.0 0.00 0.00 0.00 64 1012.4
20260505054530 64 215 7.0 15.0 0.00 0.00 0.00 63 1012.4
20260505051534 65 221 6.0 12.0 0.00 0.00 0.00 61 1012.2
20260505040040 63 184 2.0 6.0 0.00 0.00 0.00 61 1011.3
20260505033104 66 231 0.0 4.0 0.00 0.00 0.00 57 1010.9
20260505023107 72 317 6.0 16.0 0.00 0.00 0.00 52 1010.2
20260505021531 73 315 8.0 18.0 0.00 0.00 0.00 52 1010.2
20260505020030 73 318 5.0 12.0 0.00 0.00 0.00 51 1010.2
20260505014532 74 319 7.0 15.0 0.00 0.00 0.00 50 1010.2
20260505013030 74 310 8.0 16.0 0.00 0.00 0.00 50 1010.1
20260505010033 75 322 7.0 15.0 0.00 0.00 0.00 49 1010.1
20260505004646 76 331 7.0 18.0 0.00 0.00 0.00 49 1010.1
20260505001531 76 323 7.0 16.0 0.00 0.00 0.00 48 1010.1
20260505000107 77 308 8.0 20.0 0.00 0.00 0.00 47 1010.0
20260504234528 77 321 7.0 16.0 0.00 0.00 0.00 47 1010.0
20260504233106 78 315 6.0 14.0 0.00 0.00 0.00 46 1010.0
20260504231530 78 355 4.0 10.0 0.00 0.00 0.00 47 1010.0
20260504230031 78 351 4.0 9.0 0.00 0.00 0.00 47 1010.2
20260504224531 78 339 5.0 14.0 0.00 0.00 0.00 47 1010.3
20260504223030 78 348 4.0 10.0 0.00 0.00 0.00 46 1010.5
20260504221531 78 340 3.0 11.0 0.00 0.00 0.00 47 1010.6
20260504220104 78 6 6.0 12.0 0.00 0.00 0.00 47 1010.6
20260504214535 77 13 6.0 11.0 0.00 0.00 0.00 47 1010.8
20260504213030 77 21 6.0 12.0 0.00 0.00 0.00 47 1010.9
20260504211532 77 346 5.0 12.0 0.00 0.00 0.00 46 1011.1
20260504210026 76 5 6.0 12.0 0.00 0.00 0.00 47 1011.3
20260504204540 76 338 6.0 14.0 0.00 0.00 0.00 47 1011.4
20260504203032 76 356 6.0 12.0 0.00 0.00 0.00 47 1011.5
20260504201529 75 10 7.0 14.0 0.00 0.00 0.00 48 1011.6
20260504200105 75 5 8.0 15.0 0.00 0.00 0.00 49 1011.8
20260504194530 74 5 7.0 12.0 0.00 0.00 0.00 50 1011.8
20260504193030 74 9 8.0 14.0 0.00 0.00 0.00 50 1011.9
20260504184605 72 6 8.0 14.0 0.00 0.00 0.00 53 1012.1
20260504183031 71 13 7.0 13.0 0.00 0.00 0.00 55 1012.1
20260504181530 70 9 7.0 15.0 0.00 0.00 0.00 56 1012.2
20260504174531 69 7 6.0 13.0 0.00 0.00 0.00 58 1012.3
20260504173029 68 16 6.0 15.0 0.00 0.00 0.00 59 1012.3
20260504171529 67 13 7.0 12.0 0.00 0.00 0.00 60 1012.3